User: anonymous   Login
Location: Caltech
(34.1382°N, 118.1253°W)
Time: 13:15:51
(UTC-07:00)
Language:

ALOS - Orbit

View from above orbital plane
View from above orbital plane
View from above satellite
View from above satellite

Ground track
Ground track

The orbit data is extracted from the following two-line orbital elements,

1 28931U 06002A   16209.93209482 +.00000119 +00000-0 +32405-4 0  9995
2 28931 097.8814 246.8649 0000485 092.6044 267.5215 14.62217361560072
Epoch (UTC): 27 July 2016 22:22:12
Eccentricity: 0.0000485
inclination: 97.8814°
perigee height: 685 km
apogee height: 686 km
right ascension of ascending node: 246.8649°
argument of perigee: 92.6044°
revolutions per day: 14.62217361
mean anomaly at epoch: 267.5215°
orbit number at epoch: 56007

The dashed part of the orbit path shows where the satellite is in the earth's shadow,  

DLR